EW9547 Weather Reports


time (UTC)temp
C
wind
direction
speed
KPH
gust
KPH
rain 1hr
cm
rain 24hr
cm
rain mn
cm
humidity
%
barometer
mb
20260906021606 28 281 0.0 0.0 0.00 0.00 0.00 64 1014.7
20260906020010 28 281 0.0 0.0 0.00 0.00 0.00 64 1014.3
20260906014540 28 281 0.0 0.0 0.00 0.00 0.00 62 1014.5
20260906013039 29 281 0.0 4.8 0.00 0.00 0.00 61 1014.4
20260906011546 30 281 0.0 11.3 0.00 0.00 0.00 60 1014.5
20260906010113 31 281 0.0 16.1 0.00 0.00 0.00 59 1014.7
20260906004503 33 285 0.0 0.0 0.00 0.00 0.00 55 1014.5
20260906003029 33 285 0.0 1.6 0.00 0.00 0.00 52 1014.3
20260906001541 34 285 0.0 1.6 0.00 0.00 0.00 50 1014.4
20260905234510 36 285 0.0 8.0 0.00 0.00 0.00 45 1014.2
20260905233029 36 284 0.0 1.6 0.00 0.00 0.00 45 1014.2
20260905231538 37 285 0.0 8.0 0.00 0.00 0.00 42 1014.1
20260905230055 37 285 0.0 1.6 0.00 0.00 0.00 42 1014.1
20260905224509 37 284 0.0 4.8 0.00 0.00 0.00 41 1014.1
20260905223024 37 284 0.0 1.6 0.00 0.00 0.00 41 1014.2
20260905221546 37 285 1.6 17.7 0.00 0.00 0.00 41 1014.2
20260905220054 37 284 0.0 12.9 0.00 0.00 0.00 40 1014.1
20260905214510 38 286 1.6 16.1 0.00 0.00 0.00 39 1014.2
20260905213035 38 288 0.0 6.4 0.00 0.00 0.00 38 1014.3
20260905211538 37 288 0.0 4.8 0.00 0.00 0.00 39 1014.3
20260905210050 38 289 0.0 16.1 0.00 0.00 0.00 38 1014.5
20260905204502 38 288 0.0 6.4 0.00 0.00 0.00 38 1014.6
20260905203008 38 288 0.0 4.8 0.00 0.00 0.00 40 1014.8
20260905201521 38 294 0.0 3.2 0.00 0.00 0.00 39 1015.0
20260905200047 38 293 0.0 6.4 0.00 0.00 0.00 38 1015.4
20260905194537 38 293 0.0 0.0 0.00 0.00 0.00 39 1015.6
20260905193105 37 293 0.0 1.6 0.00 0.00 0.00 40 1015.7
20260905191510 37 293 0.0 0.0 0.00 0.00 0.00 43 1015.7
20260905190032 37 294 0.0 0.0 0.00 0.00 0.00 41 1016.1
20260905184536 37 294 0.0 11.3 0.00 0.00 0.00 43 1016.3
20260905183042 36 293 0.0 3.2 0.00 0.00 0.00 45 1016.5
20260905181550 38 293 0.0 4.8 0.00 0.00 0.00 41 1016.9
20260905180100 38 293 0.0 1.6 0.00 0.00 0.00 42 1017.0
20260905174508 38 293 0.0 1.6 0.00 0.00 0.00 43 1017.1
20260905173029 37 293 0.0 3.2 0.00 0.00 0.00 46 1017.2
20260905171535 36 293 0.0 1.6 0.00 0.00 0.00 49 1017.2
20260905170047 36 293 0.0 1.6 0.00 0.00 0.00 49 1017.4
20260905164547 35 293 0.0 4.8 0.00 0.00 0.00 51 1017.6
20260905163049 35 293 0.0 1.6 0.00 0.00 0.00 51 1017.8
20260905161552 35 293 0.0 1.6 0.00 0.00 0.00 53 1017.9
20260905160005 35 292 0.0 0.0 0.00 0.00 0.00 54 1018.2
20260905154502 33 292 0.0 1.6 0.00 0.00 0.00 56 1018.2
20260905153015 31 292 0.0 0.0 0.00 0.00 0.00 68 1018.2
20260905151526 30 292 0.0 0.0 0.00 0.00 0.00 71 1018.4
20260905150032 29 292 0.0 0.0 0.00 0.00 0.00 72 1018.3
20260905144541 28 291 0.0 1.6 0.00 0.00 0.00 74 1018.4
20260905143047 27 291 0.0 0.0 0.00 0.00 0.00 79 1018.4
20260905141537 27 291 0.0 0.0 0.00 0.00 0.00 81 1018.3
20260905140051 26 292 0.0 1.6 0.00 0.00 0.00 82 1018.3
20260905134608 26 292 0.0 0.0 0.00 0.00 0.00 83 1018.3
20260905133011 25 291 0.0 0.0 0.00 0.00 0.00 85 1018.3
20260905131538 25 292 0.0 1.6 0.00 0.00 0.00 85 1018.4
20260905130028 25 291 0.0 0.0 0.00 0.00 0.00 85 1018.4
20260905124543 25 291 0.0 0.0 0.00 0.00 0.00 85 1018.5
20260905123050 24 291 0.0 0.0 0.00 0.00 0.00 85 1018.4
20260905121555 23 291 0.0 0.0 0.00 0.00 0.00 85 1018.4
20260905120104 23 292 0.0 0.0 0.00 0.00 0.00 85 1018.1
20260905114513 23 292 0.0 0.0 0.00 0.00 0.00 84 1018.0
20260905113033 23 291 0.0 0.0 0.00 0.00 0.00 84 1017.8
20260905111552 23 291 0.0 0.0 0.00 0.00 0.00 84 1017.5
20260905110055 23 292 0.0 0.0 0.00 0.00 0.00 84 1017.3
20260905104602 23 291 0.0 0.0 0.00 0.00 0.00 85 1017.3
20260905103021 23 292 0.0 0.0 0.00 0.00 0.00 85 1017.0
20260905101522 23 291 0.0 0.0 0.00 0.00 0.00 85 1017.0
20260905100030 23 291 0.0 0.0 0.00 0.00 0.00 85 1016.8
20260905094539 24 292 0.0 0.0 0.00 0.00 0.00 85 1016.9
20260905093051 24 291 0.0 0.0 0.00 0.00 0.00 85 1016.8
20260905091505 24 291 0.0 0.0 0.00 0.00 0.00 85 1016.8
20260905090024 24 292 0.0 0.0 0.00 0.00 0.00 85 1016.7
20260905084528 24 292 0.0 1.6 0.00 0.00 0.00 85 1016.8
20260905083038 25 292 0.0 0.0 0.00 0.00 0.00 85 1016.8
20260905081603 25 292 0.0 1.6 0.00 0.00 0.00 84 1016.8
20260905080008 25 292 0.0 0.0 0.00 0.00 0.00 82 1016.9
20260905074521 26 291 0.0 0.0 0.00 0.00 0.00 81 1017.0
20260905073033 26 292 0.0 0.0 0.00 0.00 0.00 80 1017.0
20260905071556 26 292 0.0 0.0 0.00 0.00 0.00 81 1017.0
20260905070003 25 292 0.0 0.0 0.00 0.00 0.00 82 1017.0
20260905064528 25 291 0.0 0.0 0.00 0.00 0.00 81 1017.1
20260905063047 25 291 0.0 0.0 0.00 0.00 0.00 81 1017.0
20260905061604 25 292 0.0 0.0 0.00 0.00 0.00 82 1017.1
20260905060057 26 291 0.0 0.0 0.00 0.00 0.00 82 1017.0
20260905054507 26 291 0.0 0.0 0.00 0.00 0.00 81 1017.0
20260905053030 26 291 0.0 0.0 0.00 0.00 0.00 79 1017.0
20260905051533 26 291 0.0 0.0 0.00 0.00 0.00 77 1017.1
20260905050039 26 292 0.0 0.0 0.00 0.00 0.00 77 1017.1
20260905044548 26 291 0.0 0.0 0.00 0.00 0.00 78 1017.4
20260905043059 27 292 0.0 0.0 0.00 0.00 0.00 76 1017.4
20260905041506 27 292 0.0 0.0 0.00 0.00 0.00 75 1017.4
20260905040021 27 292 0.0 0.0 0.00 0.00 0.00 75 1017.4
20260905034517 27 291 0.0 1.6 0.00 0.00 0.00 75 1017.4
20260905033035 27 292 0.0 3.2 0.00 0.00 0.00 75 1017.5
20260905031539 27 291 0.0 0.0 0.00 0.00 0.00 75 1017.6
20260905030120 27 292 0.0 0.0 0.00 0.00 0.00 74 1017.8
20260905024526 27 291 0.0 1.6 0.00 0.00 0.00 73 1017.8
20260905023015 28 292 0.0 0.0 0.00 0.00 0.00 72 1017.9